View from above orbital plane
|
View from above satellite
|
Ground track
|
The orbit data is extracted from the following two-line orbital elements,
1 18986U 88023B 21059.60209576 -.00000002 00000-0 -16697-4 0 9992
2 18986 82.9530 117.4815 0042139 23.1503 337.1541 13.78659157656970
Epoch (UTC): | 28 February 2021 14:27:01 |
Eccentricity: | 0.0042139 |
inclination: | 82.9530° |
perigee height: | 937 km |
apogee height: | 999 km |
right ascension of ascending node: | 117.4815° |
argument of perigee: | 23.1503° |
revolutions per day: | 13.78659157 |
mean anomaly at epoch: | 337.1541° |
orbit number at epoch: | 65697 |
The dashed part of the orbit path shows where the satellite is in the earth's shadow,
|
|